Weather History for K8D3 - November, 2013

Change the Weather History Date:

Monday, November 25, 2013

  Actual Average Record
Temperature  
Mean Temperature 33 °F 25 °F  
Max Temperature 39 °F 35 °F 68 °F (1960)
Min Temperature 26 °F 16 °F -16 °F (1977)
Degree Days  
Heating Degree Days 32 40  
Month to date heating degree days 821 819  
Since 1 July heating degree days 1599 1646  
Cooling Degree Days 0 0  
Month to date cooling degree days 0 0  
Year to date cooling degree days 625 527  
Moisture  
Dew Point 22 °F    
Average Humidity 65    
Maximum Humidity 78    
Minimum Humidity 52    
Precipitation  
Precipitation 0.00 in 0.01 in 0.68 in (1934)
Month to date precipitation 0.07 0.54  
Year to date precipitation 27.43 21.90  
Snow  
Snow 0.00 in - - ()
Month to date snowfall 0.0  
Since 1 July snowfall 1.0  
Snow Depth 0.00 in    
Sea Level Pressure  
Sea Level Pressure 30.08 in    
Wind  
Wind Speed 17 mph (NNW)    
Max Wind Speed 28 mph    
Max Gust Speed 32 mph    
T = Trace of Precipitation, MM = Missing Value Source: NWS Daily Summary

Daily Weather History Graph

Daily Weather History Graph

Search for Another Location

Airport or City:

Trip Planner

Search our weather history database for the weather conditions in past years. The results will help you decide how hot, cold, wet, or windy it might be!

Date:

Astronomy

Nov. 25, 2013 Rise Set
Actual Time 7:41 AM CST 4:48 PM CST
Civil Twilight 7:08 AM CST 5:21 PM CST
Nautical Twilight 6:31 AM CST 5:58 PM CST
Astronomical Twilight 5:55 AM CST 6:33 PM CST
Moon No Moon Rise 12:46 PM CST (11/25)
Length of Visible Light 10h 13m
Length of Day
9h 07m
Waning Gibbous, 51% of the Moon is Illuminated
Nov 25
Waning Gibbous
Nov 25
Last Quarter
Dec 2
New
Dec 9
First Quarter
Dec 17
Full

Hourly Weather History & Observations

Time (CST) Temp. Windchill Dew Point Humidity Pressure Visibility Wind Dir Wind Speed Gust Speed Precip Events Conditions
12:56 AM 36.0 °F 27.5 °F 25.0 °F 64% 29.91 in - NW 12.7 mph - N/A   Unknown
1:56 AM 36.0 °F 27.1 °F 26.1 °F 67% 29.91 in - NW 13.8 mph - N/A   Unknown
2:56 AM 34.0 °F 24.2 °F 25.0 °F 70% 29.94 in - NW 15.0 mph - N/A   Unknown
3:56 AM 32.0 °F 22.5 °F 25.0 °F 75% 29.96 in - NW 12.7 mph - N/A   Unknown
4:56 AM 30.0 °F 20.5 °F 24.1 °F 79% 29.99 in - NW 11.5 mph - N/A   Unknown
5:56 AM 30.0 °F 20.0 °F 24.1 °F 79% 30.00 in - NW 12.7 mph - N/A   Unknown
6:56 AM 28.9 °F 18.2 °F 23.0 °F 78% 30.02 in - NW 13.8 mph - N/A   Unknown
7:56 AM 30.0 °F 18.3 °F 23.0 °F 75% 30.04 in - NNW 17.3 mph 24.2 mph N/A   Unknown
8:56 AM 33.1 °F 21.9 °F 24.1 °F 70% 30.06 in - NNW 18.4 mph 24.2 mph N/A   Unknown
9:56 AM 35.1 °F 25.2 °F 24.1 °F 64% 30.07 in - NNW 16.1 mph - N/A   Unknown
10:56 AM 36.0 °F 26.3 °F 24.1 °F 62% 30.07 in - NW 16.1 mph - N/A   Unknown
11:56 AM 37.9 °F 27.3 °F 23.0 °F 55% 30.07 in - NNW 21.9 mph 27.6 mph N/A   Unknown
12:56 PM 37.9 °F 28.2 °F 21.9 °F 53% 30.08 in - NW 18.4 mph - N/A   Unknown
1:56 PM 37.9 °F 27.9 °F 21.9 °F 53% 30.08 in - NW 19.6 mph - N/A   Unknown
2:56 PM 37.0 °F 25.9 °F 21.9 °F 54% 30.10 in - NNW 23.0 mph 31.1 mph N/A   Unknown
3:56 PM 35.1 °F 23.8 °F 21.9 °F 59% 30.14 in - NNW 20.7 mph 27.6 mph N/A   Unknown
4:56 PM 34.0 °F 22.7 °F 21.9 °F 61% 30.15 in - NNW 19.6 mph 26.5 mph N/A   Unknown
5:56 PM 32.0 °F 20.5 °F 21.0 °F 64% 30.18 in - North 18.4 mph 24.2 mph N/A   Unknown
6:56 PM 30.9 °F 18.4 °F 21.0 °F 67% 30.19 in - North 20.7 mph - N/A   Unknown
7:56 PM 30.0 °F 17.9 °F 19.9 °F 66% 30.19 in - North 18.4 mph 25.3 mph N/A   Unknown
8:56 PM 28.9 °F 16.5 °F 19.0 °F 67% 30.20 in - North 18.4 mph 27.6 mph N/A   Unknown
9:56 PM 28.0 °F 14.9 °F 19.0 °F 69% 30.21 in - North 19.6 mph 26.5 mph N/A   Unknown
10:56 PM 27.0 °F 14.7 °F 19.0 °F 72% 30.22 in - North 16.1 mph - N/A   Unknown
11:56 PM 26.1 °F 13.6 °F 18.0 °F 71% 30.24 in - North 16.1 mph - N/A   Unknown